Tracking 20719 objects as of 25-May-2020
HD Live streaming from Space Station
objects crossing your sky now

WESTFORD NEEDLES

Track WESTFORD NEEDLES now!
10-day predictions
WESTFORD NEEDLES is classified as:


NORAD ID: 5702
Int'l Code: 1963-014CU
Perigee: 2,034.2 km
Apogee: 5,162.5 km
Inclination: 86.7 °
Period: 165.1 minutes
Semi major axis: 9969 km
RCS: 0.1919 m2 (medium)
Launch date: May 9, 1963
Source: United States (US)
Launch site: AIR FORCE WESTERN TEST RANGE (AFWTR)
aabbcc
Your satellite tracking list
Your tracking list is empty




NASA's NSSDC Master Catalog

Two Line Element Set (TLE):
1  5702U 63014CU  20145.14520961 +.00001545 +00000-0 +19484+0 0  9998
2  5702 086.7110 018.9970 1568918 095.3136 282.7992 08.72173435629059
Source of the keplerian elements: AFSPC